Location: Newark
(52.3500°N, 175.9667°E)
Time: 15:14:48
(UTC+00:00)

Transit 4A - All Passes

Search period start: 19 April 2021 00:00
Search period end: 29 April 2021 00:00
Orbit: 869 x 975 km, 66.8° (Epoch: 18 April)

Date Brightness Start Highest point End Pass type
(mag) Time Alt. Az. Time Alt. Az. Time Alt. Az.
19 Apr - 11:05:45 10° SSE 11:10:57 29° ESE 11:16:04 10° NE visible
19 Apr - 12:50:39 10° SW 12:56:53 74° NW 13:02:57 10° NE visible
19 Apr - 14:38:57 10° W 14:44:12 28° NNW 14:49:21 10° NE visible
19 Apr - 16:28:07 10° NW 16:32:33 20° N 16:36:53 10° NE visible
19 Apr - 18:15:28 10° NNW 18:20:47 31° NNE 18:25:58 10° E daylight
19 Apr - 20:01:53 10° NW 20:07:52 88° SW 20:13:42 10° SE daylight
19 Apr - 21:49:17 10° WNW 21:53:25 20° WSW 21:57:31 10° SSW daylight
20 Apr - 11:14:20 10° S 11:20:03 39° ESE 11:25:39 10° NE visible
20 Apr - 13:00:10 10° WSW 13:06:17 58° NW 13:12:15 10° NE visible
20 Apr - 14:48:56 10° WNW 14:53:53 25° NNW 14:58:45 10° NE visible
20 Apr - 16:37:49 10° NW 16:42:19 21° N 16:46:44 10° NE daylight
20 Apr - 18:24:49 10° NW 18:30:23 38° NE 18:35:48 10° ESE daylight
20 Apr - 20:11:15 10° NW 20:17:08 67° WSW 20:22:54 10° SSE daylight
20 Apr - 21:59:33 10° WNW 22:02:22 14° WSW 22:05:10 10° SW daylight
21 Apr - 09:42:37 10° ESE 09:44:09 11° E 09:45:38 10° E visible
21 Apr - 11:23:12 10° SSW 11:29:13 53° ESE 11:35:07 10° NE visible
21 Apr - 13:09:50 10° WSW 13:15:46 45° NW 13:21:34 10° NE visible
21 Apr - 14:58:55 10° WNW 15:03:37 22° NNW 15:08:14 10° NE visible
21 Apr - 16:47:26 10° NW 16:52:05 22° NNE 16:56:38 10° ENE daylight
21 Apr - 18:34:09 10° NW 18:39:54 47° NE 18:45:31 10° ESE daylight
21 Apr - 20:20:41 10° NW 20:26:21 48° WSW 20:31:54 10° S daylight
22 Apr - 09:49:24 10° SE 09:53:03 16° ESE 09:56:41 10° ENE visible
22 Apr - 11:32:16 10° SSW 11:38:28 72° SE 11:44:31 10° NE visible
22 Apr - 13:19:37 10° W 13:25:18 37° NNW 13:30:52 10° NNE visible
22 Apr - 15:08:52 10° NW 15:13:23 21° N 15:17:49 10° NE visible
22 Apr - 16:56:56 10° NW 17:01:48 25° NNE 17:06:35 10° ENE daylight
22 Apr - 18:43:28 10° NW 18:49:22 60° NE 18:55:08 10° SE daylight
22 Apr - 20:30:12 10° NW 20:35:28 35° WSW 20:40:40 10° S daylight
23 Apr - 09:57:20 10° SSE 10:02:03 23° ESE 10:06:41 10° ENE visible
23 Apr - 11:41:32 10° SW 11:47:46 87° NW 11:53:52 10° NE visible
23 Apr - 13:29:30 10° W 13:34:55 31° NNW 13:40:12 10° NNE visible
23 Apr - 15:18:45 10° NW 15:23:09 20° N 15:27:30 10° NE visible
23 Apr - 17:06:22 10° NW 17:11:29 28° NNE 17:16:30 10° E daylight
23 Apr - 18:52:47 10° NW 18:58:46 78° NE 19:04:35 10° SE daylight
23 Apr - 20:39:51 10° WNW 20:44:32 25° WSW 20:49:09 10° SSW daylight
24 Apr - 10:05:43 10° S 10:11:06 32° ESE 10:16:24 10° NE visible
24 Apr - 11:50:58 10° SW 11:57:08 68° NW 12:03:10 10° NE visible
24 Apr - 13:39:27 10° W 13:44:34 27° NNW 13:49:35 10° NE visible
24 Apr - 15:28:31 10° NW 15:32:56 20° N 15:37:17 10° NE visible
24 Apr - 17:15:44 10° NNW 17:21:07 33° NNE 17:26:23 10° E daylight
24 Apr - 19:02:08 10° NW 19:08:05 80° SW 19:13:54 10° SSE daylight
24 Apr - 20:49:47 10° WNW 20:53:31 18° WSW 20:57:14 10° SW daylight
25 Apr - 10:14:24 10° S 10:20:14 44° ESE 10:25:57 10° NE visible
25 Apr - 12:00:32 10° WSW 12:06:34 53° NW 12:12:29 10° NE visible
25 Apr - 13:49:26 10° WNW 13:54:15 24° NNW 13:59:01 10° NE visible
25 Apr - 15:38:11 10° NW 15:42:43 21° N 15:47:09 10° ENE visible
25 Apr - 17:25:04 10° NW 17:30:41 40° NE 17:36:11 10° ESE daylight
25 Apr - 19:11:31 10° NW 19:17:20 59° WSW 19:23:01 10° SSE daylight
25 Apr - 21:00:25 10° W 21:02:26 12° W 21:04:28 10° WSW daylight
26 Apr - 08:41:42 10° SE 08:44:13 13° ESE 08:46:43 10° ENE visible
26 Apr - 10:23:20 10° SSW 10:29:25 59° ESE 10:35:23 10° NE visible
26 Apr - 12:10:14 10° WSW 12:16:04 42° NW 12:21:47 10° NE visible
26 Apr - 13:59:24 10° WNW 14:04:00 22° NNW 14:08:32 10° NE visible
26 Apr - 15:47:45 10° NW 15:52:28 23° NNE 15:57:05 10° ENE visible
26 Apr - 17:34:23 10° NW 17:40:12 51° NE 17:45:52 10° ESE daylight
26 Apr - 19:20:59 10° NW 19:26:31 43° WSW 19:31:57 10° S daylight
27 Apr - 08:49:06 10° SSE 08:53:10 19° ESE 08:57:12 10° ENE visible
27 Apr - 10:32:29 10° SSW 10:38:42 79° SE 10:44:45 10° NE visible
27 Apr - 12:20:04 10° W 12:25:38 35° NNW 12:31:06 10° NNE visible
27 Apr - 14:09:20 10° NW 14:13:46 21° N 14:18:09 10° NE visible
27 Apr - 15:57:14 10° NW 16:02:10 26° NNE 16:07:01 10° ENE visible
27 Apr - 17:43:42 10° NW 17:49:38 65° NE 17:55:25 10° SE daylight
27 Apr - 19:30:32 10° NW 19:35:37 31° WSW 19:40:38 10° S daylight
28 Apr - 08:57:13 10° SSE 09:02:11 26° ESE 09:07:05 10° NE visible
28 Apr - 10:41:48 10° SW 10:48:01 80° NW 10:54:05 10° NE visible
28 Apr - 12:29:58 10° W 12:35:15 29° NNW 12:40:27 10° NNE visible
28 Apr - 14:19:10 10° NW 14:23:33 20° N 14:27:52 10° NE visible
28 Apr - 16:06:38 10° NNW 16:11:50 30° NNE 16:16:56 10° E visible
28 Apr - 17:53:02 10° NW 17:58:59 85° NE 18:04:50 10° SE daylight
28 Apr - 19:40:16 10° WNW 19:44:39 22° WSW 19:48:59 10° SSW daylight
